Home > Weather > Ankara > Past weeks

Flag for Turkey Past Weather in Ankara, Turkey — Yesterday and Last 2 Weeks

Now
72 °F

Passing clouds.


Feels Like: 77 °F
Forecast: 64 / 90 °F
Wind: 3 mph from Northeast

Location: Ankara / Esenboga

Current Time: Jul 29, 2016 at 9:02:47 AM

Latest Report: Jul 29, 2016 at 8:20 AM


Visibility: N/A

Pressure: 29.98 "Hg (27.10 "Hg at 871m altitude)

Humidity: 47%

Dew Point: 50 °F

Location of AnkaraLocation

Past Weather in Ankara — Graph

°F

Ankara Temperature Yesterday

Maximum temperature yesterday: 88 °F (at 4:20 PM)
Minimum temperature yesterday: 63 °F (at 5:20 AM)
Average temperature yesterday: 76 °F

High & Low Weather Summary for the Past Weeks

 TemperatureHumidityPressure
High99 °F (Jul 17, 3:20 PM)77% (Jul 22, 5:20 AM)30.04 "Hg (Jul 22, 5:20 AM)
Low54 °F (Jul 25, 5:50 AM)4% (Jul 15, 4:50 PM)29.71 "Hg (Jul 18, 3:20 PM)
Average75 °F38%29.93 "Hg
* Reported Jul 14 7:20 AM — Jul 29 7:50 AM, Ankara, Weather by CustomWeather, © 2016

Note: Actual official high and low records may vary slightly from our data, if they occured in-between our weather recording intervals... More about our weather records

Advertising

Ankara Weather History for the Previous 24 Hours

Scroll right to see more
 ConditionsComfort  
Time TempWeatherWind HumidityBarometerVisibility
7:50 AM
Fri, Jul 29
68 °FSunny.3 mph53%29.98 "Hg10 mi
7:20 AM66 °FSunny.5 mph56%29.98 "Hg10 mi
6:50 AM63 °FSunny.6 mph64%29.98 "Hg10 mi
6:20 AM61 °FClear.8 mph68%29.98 "Hg10 mi
5:50 AM63 °FClear.10 mph64%29.98 "Hg10 mi
5:20 AM63 °FClear.12 mph64%29.98 "Hg10 mi
4:50 AM63 °FClear.12 mph64%29.98 "Hg10 mi
4:20 AM64 °FClear.12 mph60%29.98 "Hg10 mi
3:50 AM66 °FClear.12 mph56%29.95 "Hg10 mi
3:20 AM66 °FClear.6 mph56%29.98 "Hg10 mi
2:50 AM66 °FClear.6 mph56%29.98 "Hg10 mi
2:20 AM68 °FClear.9 mph53%29.98 "Hg10 mi
1:50 AM68 °FClear.7 mph56%29.98 "Hg10 mi
1:20 AM70 °FClear.9 mph53%29.98 "Hg10 mi
12:50 AM70 °FPassing clouds.9 mph53%29.98 "HgN/A
12:20 AM72 °FClear.13 mph50%29.98 "Hg10 mi
11:50 PM
Thu, Jul 28
72 °FClear.8 mph50%29.98 "Hg10 mi
11:20 PM73 °FClear.7 mph44%29.95 "Hg10 mi
10:50 PM73 °FClear.6 mph44%29.95 "Hg10 mi
10:20 PM75 °FPassing clouds.9 mph41%29.95 "HgN/A
9:50 PM77 °FClear.6 mph32%29.95 "Hg10 mi
9:20 PM77 °FClear.5 mph30%29.95 "Hg10 mi
8:50 PM79 °FPassing clouds.6 mph28%29.95 "HgN/A
8:20 PM82 °FPassing clouds.6 mph23%29.92 "HgN/A
7:50 PM82 °FScattered clouds.8 mph25%29.92 "HgN/A
7:20 PM84 °FScattered clouds.8 mph23%29.92 "HgN/A
6:50 PM84 °FScattered clouds.9 mph23%29.92 "HgN/A
6:20 PM86 °FScattered clouds.5 mph24%29.89 "HgN/A
5:50 PM86 °FScattered clouds.8 mph25%29.89 "HgN/A
5:20 PM86 °FScattered clouds.5 mph25%29.92 "HgN/A
4:50 PM86 °FScattered clouds.6 mph25%29.92 "HgN/A
4:20 PM88 °FScattered clouds.5 mph24%29.92 "HgN/A
3:50 PM86 °FScattered clouds.5 mph25%29.92 "HgN/A
3:20 PM86 °FScattered clouds.5 mph25%29.92 "HgN/A
2:50 PM86 °FScattered clouds.2 mph25%29.95 "HgN/A
2:20 PM84 °FScattered clouds.3 mph27%29.95 "HgN/A
1:50 PM84 °FPassing clouds.2 mph27%29.95 "HgN/A
1:20 PM82 °FPassing clouds.7 mph28%29.95 "HgN/A
12:50 PM82 °FPassing clouds.7 mph28%29.95 "HgN/A
12:20 PM82 °FPassing clouds.3 mph28%29.98 "HgN/A
11:50 AM82 °FPassing clouds.5 mph30%29.98 "HgN/A
11:20 AM79 °FPassing clouds.6 mph32%29.98 "HgN/A
10:50 AM79 °FPassing clouds.7 mph32%29.98 "HgN/A
10:20 AM77 °FPassing clouds.5 mph36%29.98 "HgN/A
9:50 AM77 °FPassing clouds.6 mph36%29.98 "HgN/A
9:20 AM75 °FPassing clouds.6 mph41%29.98 "HgN/A
Weather by CustomWeather, © 2016

See weather overviewHow to use our weather pages